[Date Prev][Date Next][Thread Prev][Thread Next] - [Date Index][Thread Index][Author Index]
2 Line ISS Keps 12-28
- Subject: [sarex] 2 Line ISS Keps 12-28
- From: "Dave Larsen PhD" <doc@xxxxxxxxxxx>
- Date: Tue, 27 Dec 2005 18:35:06 -0800
ISS
1 25544U 98067A 05361.84134700 .00017989 00000-0 13041-3 0 359
2 25544 051.6447 348.3516 0010840 087.2186 342.4218 15.73441713406161
----
Via the sarex mailing list at AMSAT.ORG courtesy of AMSAT-NA.
To unsubscribe, send "unsubscribe sarex" to Majordomo@amsat.org
AMSAT Home